Location: ???????
(55.7027°N, 37.3832°E)
Time: 10:05:33
(UTC+00:00)

Cosmos 2221 Rocket - Pass Details

Date: 14 April 2026
Orbit: 615 x 641 km, 82.5° (Epoch: 18 May)

Event Time Altitude Azimuth Distance (km) Brightness Sun altitude
Rises 19:08:05 0° 346° (NNW) 2,902 8.2 -18.3°
Reaches altitude 10° 19:10:19 10° 344° (NNW) 1,992 7.2 -18.4°
Maximum altitude 19:14:42 69° 262° (W) 666 3.7 -18.8°
Enters shadow 19:16:32 34° 188° (S) 1,033 4.3 -19.0°
